Location: Axtheid
(49.6213°N, 11.8205°E)
Time: 22:05:07
(UTC+00:00)

Meteor 1-21 Rocket - Visible Passes

Search period start: 05 May 2021 00:00
Search period end: 15 May 2021 00:00
Orbit: 832 x 908 km, 81.2° (Epoch: 05 May)

Date Brightness Start Highest point End Pass type
(mag) Time Alt. Az. Time Alt. Az. Time Alt. Az.
12 May 7.2 01:41:40 10° E 01:42:27 10° ENE 01:43:14 10° ENE visible
13 May 7.1 01:35:05 10° E 01:36:16 11° ENE 01:37:27 10° ENE visible
14 May 7.0 01:28:37 10° E 01:30:05 11° ENE 01:31:32 10° ENE visible
